{"data":{"norad_id":61780,"epoch":"2026-09-22T20:12:17.215488Z","epoch_age_seconds":99954,"freshness":"FRESH","line1":"1 61780U 24199AX  26265.84186592  .00071691  00000+0  58833-3 0  9994","line2":"2 61780  97.2720 145.0963 0002234 276.6922  83.4086 15.70248680149705","mean_motion":15.7024868,"eccentricity":0.0002234,"inclination_deg":97.272,"raan_deg":145.0963,"arg_perigee_deg":276.6922,"mean_anomaly_deg":83.4086,"bstar":0.00058833,"rev_number":14970,"period_min":91.705219583436,"perigee_km":356.68080066245,"apogee_km":359.69058964265,"semimajor_km":6736.3226951525,"source":"CELESTRAK","updated_at":"2026-09-23T09:00:21.038034Z"}}